Time,TemperatureF,DewpointF,PressureIn,WindDirection,WindDirectionDegrees,WindSpeedMPH,WindSpeedGustMPH,Humidity,HourlyPrecipIn,Conditions,Clouds,dailyrainin,SoftwareType,DateUTC
2013-08-02 00:00:00,64.3,61.6,29.82,SSW,205,1.0,1.0,91,0.00,,,0.22,Wunderground v.1.15,2013-08-02 04:00:00,
2013-08-02 00:01:00,64.3,61.6,29.82,SSW,205,1.0,5.0,91,0.00,,,0.00,Wunderground v.1.15,2013-08-02 04:01:00,
2013-08-02 00:03:00,64.3,61.6,29.82,SSW,205,1.0,5.0,91,0.00,,,0.00,Wunderground v.1.15,2013-08-02 04:03:00,
2013-08-02 00:04:00,64.3,61.6,29.83,SSW,205,0.0,5.0,91,0.00,,,0.00,Wunderground v.1.15,2013-08-02 04:04:00,
2013-08-02 00:06:00,64.1,61.4,29.83,SSW,205,0.0,5.0,91,0.00,,,0.00,Wunderground v.1.15,2013-08-02 04:06:00,
2013-08-02 00:11:00,63.8,61.1,29.83,SSW,205,0.0,5.0,91,0.00,,,0.00,Wunderground v.1.15,2013-08-02 04:11:00,
2013-08-02 00:16:00,63.7,61.0,29.83,SSW,209,1.0,5.0,91,0.00,,,0.00,Wunderground v.1.15,2013-08-02 04:16:00,
2013-08-02 00:21:00,63.5,61.1,29.83,SSW,209,1.0,5.0,92,0.00,,,0.00,Wunderground v.1.15,2013-08-02 04:21:00,
2013-08-02 00:25:00,63.2,60.8,29.83,SSW,209,0.0,5.0,92,0.00,,,0.00,Wunderground v.1.15,2013-08-02 04:25:00,
2013-08-02 00:30:00,63.1,61.0,29.83,SSW,209,0.0,5.0,93,0.00,,,0.00,Wunderground v.1.15,2013-08-02 04:30:00,
2013-08-02 00:35:00,62.6,60.2,29.83,SSW,209,0.0,5.0,92,0.00,,,0.00,Wunderground v.1.15,2013-08-02 04:35:00,
2013-08-02 00:41:00,62.1,60.1,29.83,SSW,209,0.0,5.0,93,0.00,,,0.00,Wunderground v.1.15,2013-08-02 04:41:00,
2013-08-02 00:47:00,61.9,60.2,29.83,SSW,209,0.0,5.0,94,0.00,,,0.00,Wunderground v.1.15,2013-08-02 04:47:00,
2013-08-02 00:52:00,61.8,60.1,29.83,SSW,209,0.0,5.0,94,0.00,,,0.00,Wunderground v.1.15,2013-08-02 04:52:00,
2013-08-02 00:57:00,61.8,60.4,29.83,SSW,209,0.0,5.0,95,0.00,,,0.00,Wunderground v.1.15,2013-08-02 04:57:00,
2013-08-02 01:02:00,61.8,60.4,29.83,WNW,294,1.0,5.0,95,0.00,,,0.00,Wunderground v.1.15,2013-08-02 05:02:00,
2013-08-02 01:07:00,62.0,60.6,29.83,West,268,1.0,5.0,95,0.00,,,0.00,Wunderground v.1.15,2013-08-02 05:07:00,
2013-08-02 01:12:00,62.1,60.7,29.83,SW,223,1.0,5.0,95,0.00,,,0.00,Wunderground v.1.15,2013-08-02 05:12:00,
2013-08-02 01:18:00,62.1,60.7,29.84,SW,223,0.0,5.0,95,0.00,,,0.00,Wunderground v.1.15,2013-08-02 05:18:00,
2013-08-02 01:23:00,62.0,60.6,29.84,SW,223,0.0,5.0,95,0.00,,,0.00,Wunderground v.1.15,2013-08-02 05:23:00,
2013-08-02 01:28:00,61.9,60.2,29.84,SW,223,0.0,5.0,94,0.00,,,0.00,Wunderground v.1.15,2013-08-02 05:28:00,
2013-08-02 01:33:00,61.9,60.5,29.84,SW,223,0.0,5.0,95,0.00,,,0.00,Wunderground v.1.15,2013-08-02 05:33:00,
2013-08-02 01:38:00,61.8,60.4,29.84,SW,223,0.0,5.0,95,0.00,,,0.00,Wunderground v.1.15,2013-08-02 05:38:00,
2013-08-02 01:43:00,61.7,60.3,29.84,SW,223,0.0,5.0,95,0.00,,,0.00,Wunderground v.1.15,2013-08-02 05:43:00,
2013-08-02 01:48:00,61.7,60.3,29.84,SW,223,0.0,5.0,95,0.00,,,0.00,Wunderground v.1.15,2013-08-02 05:48:00,
2013-08-02 01:53:00,61.5,60.1,29.83,SW,223,0.0,5.0,95,0.00,,,0.00,Wunderground v.1.15,2013-08-02 05:53:00,
2013-08-02 01:58:00,61.6,60.4,29.83,SW,223,0.0,5.0,96,0.00,,,0.00,Wunderground v.1.15,2013-08-02 05:58:00,
2013-08-02 02:03:00,61.6,60.4,29.83,SW,223,0.0,5.0,96,0.00,,,0.00,Wunderground v.1.15,2013-08-02 06:03:00,
2013-08-02 02:08:00,61.6,60.4,29.83,SW,223,0.0,5.0,96,0.00,,,0.00,Wunderground v.1.15,2013-08-02 06:08:00,
2013-08-02 02:14:00,61.5,60.3,29.83,SW,223,0.0,5.0,96,0.00,,,0.00,Wunderground v.1.15,2013-08-02 06:14:00,
2013-08-02 02:19:00,61.3,60.2,29.83,SW,223,0.0,5.0,96,0.00,,,0.00,Wunderground v.1.15,2013-08-02 06:19:00,
2013-08-02 02:24:00,61.1,60.0,29.83,SW,223,0.0,5.0,96,0.00,,,0.00,Wunderground v.1.15,2013-08-02 06:24:00,
2013-08-02 02:29:00,61.0,59.9,29.83,SW,223,0.0,5.0,96,0.00,,,0.00,Wunderground v.1.15,2013-08-02 06:29:00,
2013-08-02 02:34:00,60.9,59.8,29.83,SW,223,0.0,5.0,96,0.00,,,0.00,Wunderground v.1.15,2013-08-02 06:34:00,
2013-08-02 02:39:00,60.9,59.8,29.83,SW,223,0.0,5.0,96,0.00,,,0.00,Wunderground v.1.15,2013-08-02 06:39:00,
2013-08-02 02:45:00,60.7,59.6,29.83,SW,223,0.0,5.0,96,0.00,,,0.00,Wunderground v.1.15,2013-08-02 06:45:00,
2013-08-02 02:50:00,60.6,59.5,29.82,SW,223,0.0,5.0,96,0.00,,,0.00,Wunderground v.1.15,2013-08-02 06:50:00,
2013-08-02 02:55:00,60.6,59.5,29.83,SW,223,0.0,5.0,96,0.00,,,0.00,Wunderground v.1.15,2013-08-02 06:55:00,
2013-08-02 03:00:00,60.5,59.4,29.83,SW,223,0.0,5.0,96,0.00,,,0.00,Wunderground v.1.15,2013-08-02 07:00:00,
2013-08-02 03:05:00,60.6,59.7,29.83,SW,223,1.0,5.0,97,0.00,,,0.00,Wunderground v.1.15,2013-08-02 07:05:00,
2013-08-02 03:10:00,60.8,59.9,29.83,SW,217,1.0,1.0,97,0.00,,,0.00,Wunderground v.1.15,2013-08-02 07:10:00,
2013-08-02 03:16:00,60.7,59.8,29.83,SW,217,1.0,5.0,97,0.00,,,0.00,Wunderground v.1.15,2013-08-02 07:16:00,
2013-08-02 03:21:00,60.7,59.8,29.83,SW,217,0.0,5.0,97,0.00,,,0.00,Wunderground v.1.15,2013-08-02 07:21:00,
2013-08-02 03:26:00,60.6,59.7,29.83,SW,217,0.0,5.0,97,0.00,,,0.00,Wunderground v.1.15,2013-08-02 07:26:00,
2013-08-02 03:31:00,60.6,59.7,29.83,SW,217,0.0,5.0,97,0.00,,,0.00,Wunderground v.1.15,2013-08-02 07:31:00,
2013-08-02 03:36:00,60.6,59.7,29.83,SW,217,0.0,5.0,97,0.00,,,0.00,Wunderground v.1.15,2013-08-02 07:36:00,
2013-08-02 03:41:00,60.5,59.6,29.83,SW,217,0.0,5.0,97,0.00,,,0.00,Wunderground v.1.15,2013-08-02 07:41:00,
2013-08-02 03:47:00,60.5,59.6,29.83,SW,217,0.0,5.0,97,0.00,,,0.00,Wunderground v.1.15,2013-08-02 07:47:00,
2013-08-02 03:52:00,60.3,59.4,29.83,SW,217,0.0,5.0,97,0.00,,,0.00,Wunderground v.1.15,2013-08-02 07:52:00,
2013-08-02 03:57:00,60.3,59.4,29.83,SW,217,0.0,5.0,97,0.00,,,0.00,Wunderground v.1.15,2013-08-02 07:57:00,
2013-08-02 04:02:00,60.2,59.3,29.83,SW,217,0.0,5.0,97,0.00,,,0.00,Wunderground v.1.15,2013-08-02 08:02:00,
2013-08-02 04:08:00,60.2,59.3,29.83,SW,217,0.0,5.0,97,0.00,,,0.00,Wunderground v.1.15,2013-08-02 08:08:00,
2013-08-02 04:13:00,60.2,59.3,29.83,SW,217,1.0,5.0,97,0.00,,,0.00,Wunderground v.1.15,2013-08-02 08:13:00,
2013-08-02 04:18:00,60.2,59.3,29.83,SW,217,1.0,5.0,97,0.00,,,0.00,Wunderground v.1.15,2013-08-02 08:18:00,
2013-08-02 04:23:00,60.2,59.3,29.83,SW,217,1.0,5.0,97,0.00,,,0.00,Wunderground v.1.15,2013-08-02 08:23:00,
2013-08-02 04:28:00,60.0,59.1,29.83,SW,217,1.0,5.0,97,0.00,,,0.00,Wunderground v.1.15,2013-08-02 08:28:00,
2013-08-02 04:34:00,59.8,58.9,29.83,SW,217,1.0,5.0,97,0.00,,,0.00,Wunderground v.1.15,2013-08-02 08:34:00,
2013-08-02 04:39:00,59.6,58.7,29.83,SW,217,1.0,5.0,97,0.00,,,0.00,Wunderground v.1.15,2013-08-02 08:39:00,
2013-08-02 04:44:00,59.5,58.6,29.83,SW,217,1.0,5.0,97,0.00,,,0.00,Wunderground v.1.15,2013-08-02 08:44:00,
2013-08-02 04:49:00,59.4,58.5,29.83,SW,217,1.0,5.0,97,0.00,,,0.00,Wunderground v.1.15,2013-08-02 08:49:00,
2013-08-02 04:54:00,59.4,58.5,29.83,SW,217,1.0,5.0,97,0.00,,,0.00,Wunderground v.1.15,2013-08-02 08:54:00,
2013-08-02 04:59:00,59.3,58.4,29.83,SW,217,1.0,5.0,97,0.00,,,0.00,Wunderground v.1.15,2013-08-02 08:59:00,
2013-08-02 05:04:00,59.2,58.3,29.83,SW,217,1.0,5.0,97,0.00,,,0.00,Wunderground v.1.15,2013-08-02 09:04:00,
2013-08-02 05:09:00,59.3,58.4,29.83,SW,217,0.0,5.0,97,0.00,,,0.00,Wunderground v.1.15,2013-08-02 09:09:00,
2013-08-02 05:14:00,59.1,58.2,29.84,SW,217,0.0,5.0,97,0.00,,,0.00,Wunderground v.1.15,2013-08-02 09:14:00,
2013-08-02 05:19:00,59.0,58.2,29.84,SW,217,0.0,5.0,97,0.00,,,0.00,Wunderground v.1.15,2013-08-02 09:19:00,
2013-08-02 05:25:00,58.9,58.1,29.84,SW,217,0.0,5.0,97,0.00,,,0.00,Wunderground v.1.15,2013-08-02 09:25:00,
2013-08-02 05:31:00,58.7,57.9,29.84,SW,217,0.0,5.0,97,0.00,,,0.00,Wunderground v.1.15,2013-08-02 09:31:00,
2013-08-02 05:36:00,58.7,57.9,29.84,SW,217,0.0,5.0,97,0.00,,,0.00,Wunderground v.1.15,2013-08-02 09:36:00,
2013-08-02 05:41:00,58.6,57.8,29.84,SSW,207,1.0,5.0,97,0.00,,,0.00,Wunderground v.1.15,2013-08-02 09:41:00,
2013-08-02 05:46:00,58.4,57.6,29.84,SSW,207,1.0,5.0,97,0.00,,,0.00,Wunderground v.1.15,2013-08-02 09:46:00,
2013-08-02 05:51:00,58.5,57.7,29.85,SSW,207,1.0,5.0,97,0.00,,,0.00,Wunderground v.1.15,2013-08-02 09:51:00,
2013-08-02 05:56:00,58.4,57.6,29.85,SSW,207,1.0,5.0,97,0.00,,,0.00,Wunderground v.1.15,2013-08-02 09:56:00,
2013-08-02 06:01:00,58.3,57.5,29.85,SSW,207,1.0,1.0,97,0.00,,,0.00,Wunderground v.1.15,2013-08-02 10:01:00,
2013-08-02 06:06:00,58.4,57.6,29.85,SSW,207,1.0,1.0,97,0.00,,,0.00,Wunderground v.1.15,2013-08-02 10:06:00,
2013-08-02 06:12:00,58.5,57.7,29.85,SSW,207,0.0,1.0,97,0.00,,,0.00,Wunderground v.1.15,2013-08-02 10:12:00,
2013-08-02 06:17:00,58.5,57.7,29.85,SSW,207,0.0,1.0,97,0.00,,,0.00,Wunderground v.1.15,2013-08-02 10:17:00,
2013-08-02 06:22:00,58.6,57.8,29.85,SSW,207,0.0,0.0,97,0.00,,,0.00,Wunderground v.1.15,2013-08-02 10:22:00,
2013-08-02 06:27:00,58.7,57.9,29.85,SSW,207,0.0,0.0,97,0.00,,,0.00,Wunderground v.1.15,2013-08-02 10:27:00,
2013-08-02 06:32:00,58.9,58.3,29.85,SSW,207,0.0,0.0,98,0.00,,,0.00,Wunderground v.1.15,2013-08-02 10:32:00,
2013-08-02 06:37:00,58.6,57.8,29.85,SSW,207,0.0,0.0,97,0.00,,,0.00,Wunderground v.1.15,2013-08-02 10:37:00,
2013-08-02 06:43:00,58.9,58.3,29.85,SSW,207,0.0,0.0,98,0.00,,,0.00,Wunderground v.1.15,2013-08-02 10:43:00,
2013-08-02 06:48:00,59.1,58.5,29.85,SSW,207,0.0,0.0,98,0.00,,,0.00,Wunderground v.1.15,2013-08-02 10:48:00,
2013-08-02 06:54:00,59.5,58.9,29.85,SSW,211,0.0,1.0,98,0.00,,,0.00,Wunderground v.1.15,2013-08-02 10:54:00,
2013-08-02 06:59:00,59.9,59.3,29.85,SSW,211,0.0,1.0,98,0.00,,,0.00,Wunderground v.1.15,2013-08-02 10:59:00,
2013-08-02 07:04:00,60.5,59.9,29.85,SSW,201,1.0,2.0,98,0.00,,,0.00,Wunderground v.1.15,2013-08-02 11:04:00,
2013-08-02 07:09:00,60.8,60.2,29.85,SSW,201,1.0,2.0,98,0.00,,,0.00,Wunderground v.1.15,2013-08-02 11:09:00,
2013-08-02 07:14:00,61.1,60.5,29.86,SSW,201,1.0,1.0,98,0.00,,,0.00,Wunderground v.1.15,2013-08-02 11:14:00,
2013-08-02 07:20:00,61.5,60.9,29.86,SSW,201,1.0,1.0,98,0.00,,,0.00,Wunderground v.1.15,2013-08-02 11:20:00,
2013-08-02 07:26:00,62.0,61.4,29.86,SSW,205,1.0,3.0,98,0.00,,,0.00,Wunderground v.1.15,2013-08-02 11:26:00,
2013-08-02 07:31:00,62.5,61.6,29.86,SW,216,2.0,2.0,97,0.00,,,0.00,Wunderground v.1.15,2013-08-02 11:31:00,
2013-08-02 07:37:00,63.1,62.2,29.86,SSW,205,2.0,3.0,97,0.00,,,0.00,Wunderground v.1.15,2013-08-02 11:37:00,
2013-08-02 07:42:00,63.6,62.1,29.86,SSW,197,2.0,2.0,95,0.00,,,0.00,Wunderground v.1.15,2013-08-02 11:42:00,
2013-08-02 07:48:00,64.1,62.0,29.86,SW,220,2.0,3.0,93,0.00,,,0.00,Wunderground v.1.15,2013-08-02 11:48:00,
2013-08-02 07:53:00,64.7,62.6,29.86,SSW,209,2.0,3.0,93,0.00,,,0.00,Wunderground v.1.15,2013-08-02 11:53:00,
2013-08-02 07:58:00,65.2,62.8,29.86,SW,227,2.0,3.0,92,0.00,,,0.00,Wunderground v.1.15,2013-08-02 11:58:00,
2013-08-02 08:03:00,65.6,62.9,29.87,WSW,238,2.0,3.0,91,0.00,,,0.00,Wunderground v.1.15,2013-08-02 12:03:00,
2013-08-02 08:08:00,65.9,62.9,29.87,SSW,208,3.0,5.0,90,0.00,,,0.00,Wunderground v.1.15,2013-08-02 12:08:00,
2013-08-02 08:14:00,66.1,63.1,29.87,SW,225,3.0,4.0,90,0.00,,,0.00,Wunderground v.1.15,2013-08-02 12:14:00,
2013-08-02 08:19:00,66.6,63.3,29.87,SSW,202,3.0,4.0,89,0.00,,,0.00,Wunderground v.1.15,2013-08-02 12:19:00,
2013-08-02 08:24:00,66.8,63.1,29.87,WSW,258,2.0,4.0,88,0.00,,,0.00,Wunderground v.1.15,2013-08-02 12:24:00,
2013-08-02 08:29:00,67.1,63.1,29.87,SSW,213,3.0,7.0,87,0.00,,,0.00,Wunderground v.1.15,2013-08-02 12:29:00,
2013-08-02 08:34:00,67.3,63.3,29.87,SW,219,3.0,7.0,87,0.00,,,0.00,Wunderground v.1.15,2013-08-02 12:34:00,
2013-08-02 08:39:00,67.6,63.6,29.87,SSW,213,3.0,7.0,87,0.00,,,0.00,Wunderground v.1.15,2013-08-02 12:39:00,
2013-08-02 08:44:00,68.0,64.0,29.87,SSW,192,3.0,6.0,87,0.00,,,0.00,Wunderground v.1.15,2013-08-02 12:44:00,
2013-08-02 08:49:00,68.1,63.8,29.87,WSW,247,3.0,6.0,86,0.00,,,0.00,Wunderground v.1.15,2013-08-02 12:49:00,
2013-08-02 08:54:00,68.5,64.1,29.87,SW,234,3.0,6.0,86,0.00,,,0.00,Wunderground v.1.15,2013-08-02 12:54:00,
2013-08-02 09:00:00,68.8,63.4,29.87,SSW,199,3.0,7.0,83,0.00,,,0.00,Wunderground v.1.15,2013-08-02 13:00:00,
2013-08-02 09:05:00,69.1,64.1,29.87,SW,232,4.0,7.0,84,0.00,,,0.00,Wunderground v.1.15,2013-08-02 13:05:00,
2013-08-02 09:10:00,69.5,64.1,29.88,SW,225,3.0,3.0,83,0.00,,,0.00,Wunderground v.1.15,2013-08-02 13:10:00,
2013-08-02 09:15:00,69.9,64.8,29.88,SSE,151,3.0,4.0,84,0.00,,,0.00,Wunderground v.1.15,2013-08-02 13:15:00,
2013-08-02 09:20:00,70.1,64.3,29.88,SSW,206,3.0,4.0,82,0.00,,,0.00,Wunderground v.1.15,2013-08-02 13:20:00,
2013-08-02 09:25:00,70.1,63.6,29.88,SSW,209,4.0,8.0,80,0.00,,,0.00,Wunderground v.1.15,2013-08-02 13:25:00,
2013-08-02 09:30:00,70.0,63.5,29.88,SW,217,4.0,4.0,80,0.00,,,0.00,Wunderground v.1.15,2013-08-02 13:30:00,
2013-08-02 09:36:00,70.6,64.1,29.87,SSW,210,3.0,4.0,80,0.00,,,0.00,Wunderground v.1.15,2013-08-02 13:36:00,
2013-08-02 09:42:00,70.6,63.4,29.87,WSW,257,3.0,4.0,78,0.00,,,0.00,Wunderground v.1.15,2013-08-02 13:42:00,
2013-08-02 09:47:00,71.2,65.1,29.87,South,174,3.0,4.0,81,0.00,,,0.00,Wunderground v.1.15,2013-08-02 13:47:00,
2013-08-02 09:52:00,71.5,64.3,29.87,SSE,148,3.0,5.0,78,0.00,,,0.00,Wunderground v.1.15,2013-08-02 13:52:00,
2013-08-02 09:57:00,71.9,64.3,29.86,SSW,209,3.0,5.0,77,0.00,,,0.00,Wunderground v.1.15,2013-08-02 13:57:00,
2013-08-02 10:02:00,72.1,63.7,29.86,South,177,3.0,3.0,75,0.00,,,0.00,Wunderground v.1.15,2013-08-02 14:02:00,
2013-08-02 10:07:00,72.2,64.6,29.86,South,181,3.0,6.0,77,0.00,,,0.00,Wunderground v.1.15,2013-08-02 14:07:00,
2013-08-02 10:12:00,72.3,63.2,29.86,SSW,200,3.0,6.0,73,0.00,,,0.00,Wunderground v.1.15,2013-08-02 14:12:00,
2013-08-02 10:17:00,72.0,62.9,29.86,SSE,152,4.0,6.0,73,0.00,,,0.00,Wunderground v.1.15,2013-08-02 14:17:00,
2013-08-02 10:22:00,72.7,63.1,29.86,WSW,251,3.0,4.0,72,0.00,,,0.00,Wunderground v.1.15,2013-08-02 14:22:00,
2013-08-02 10:28:00,72.6,64.6,29.86,SSW,194,3.0,4.0,76,0.00,,,0.00,Wunderground v.1.15,2013-08-02 14:28:00,
2013-08-02 10:33:00,72.4,63.3,29.85,SSW,205,3.0,7.0,73,0.00,,,0.00,Wunderground v.1.15,2013-08-02 14:33:00,
2013-08-02 10:39:00,72.3,63.5,29.85,SW,223,3.0,7.0,74,0.00,,,0.00,Wunderground v.1.15,2013-08-02 14:39:00,
2013-08-02 10:44:00,72.3,63.5,29.85,SSW,205,3.0,3.0,74,0.00,,,0.00,Wunderground v.1.15,2013-08-02 14:44:00,
2013-08-02 10:49:00,72.5,64.5,29.85,SSW,207,2.0,6.0,76,0.00,,,0.00,Wunderground v.1.15,2013-08-02 14:49:00,
2013-08-02 10:54:00,72.9,65.3,29.85,WSW,248,3.0,4.0,77,0.00,,,0.00,Wunderground v.1.15,2013-08-02 14:54:00,
2013-08-02 10:59:00,73.5,64.3,29.85,SE,145,3.0,5.0,73,0.00,,,0.00,Wunderground v.1.15,2013-08-02 14:59:00,
2013-08-02 11:04:00,73.1,63.5,29.85,South,180,5.0,8.0,72,0.00,,,0.00,Wunderground v.1.15,2013-08-02 15:04:00,
2013-08-02 11:09:00,73.3,64.1,29.85,SW,236,4.0,8.0,73,0.00,,,0.00,Wunderground v.1.15,2013-08-02 15:09:00,
2013-08-02 11:15:00,73.9,63.1,29.85,WSW,238,3.0,4.0,69,0.00,,,0.00,Wunderground v.1.15,2013-08-02 15:15:00,
2013-08-02 11:20:00,73.4,62.6,29.84,WSW,244,3.0,3.0,69,0.00,,,0.00,Wunderground v.1.15,2013-08-02 15:20:00,
2013-08-02 11:25:00,72.9,60.9,29.84,SSW,209,3.0,3.0,66,0.00,,,0.00,Wunderground v.1.15,2013-08-02 15:25:00,
2013-08-02 11:30:00,72.8,62.0,29.84,SSW,201,2.0,2.0,69,0.00,,,0.00,Wunderground v.1.15,2013-08-02 15:30:00,
2013-08-02 11:35:00,72.7,62.3,29.84,South,190,2.0,3.0,70,0.00,,,0.00,Wunderground v.1.15,2013-08-02 15:35:00,
2013-08-02 11:40:00,72.5,62.2,29.84,SSW,199,2.0,2.0,70,0.00,,,0.00,Wunderground v.1.15,2013-08-02 15:40:00,
2013-08-02 11:46:00,72.4,62.1,29.84,SSW,207,3.0,5.0,70,0.00,,,0.00,Wunderground v.1.15,2013-08-02 15:46:00,
2013-08-02 11:52:00,72.3,62.0,29.84,SW,234,2.0,2.0,70,0.00,,,0.00,Wunderground v.1.15,2013-08-02 15:52:00,
2013-08-02 11:57:00,72.3,62.4,29.84,SSW,202,1.0,2.0,71,0.00,,,0.00,Wunderground v.1.15,2013-08-02 15:57:00,
2013-08-02 12:02:00,72.7,63.1,29.84,SW,234,1.0,2.0,72,0.00,,,0.00,Wunderground v.1.15,2013-08-02 16:02:00,
2013-08-02 12:07:00,73.5,62.7,29.84,SW,223,1.0,2.0,69,0.00,,,0.00,Wunderground v.1.15,2013-08-02 16:07:00,
2013-08-02 12:12:00,73.3,63.3,29.84,SSW,200,1.0,3.0,71,0.00,,,0.00,Wunderground v.1.15,2013-08-02 16:12:00,
2013-08-02 12:18:00,73.4,62.2,29.83,SW,215,1.0,3.0,68,0.00,,,0.00,Wunderground v.1.15,2013-08-02 16:18:00,
2013-08-02 12:23:00,73.3,64.1,29.83,SW,214,1.0,2.0,73,0.00,,,0.00,Wunderground v.1.15,2013-08-02 16:23:00,
2013-08-02 12:28:00,72.9,61.7,29.84,WNW,285,2.0,2.0,68,0.00,,,0.00,Wunderground v.1.15,2013-08-02 16:28:00,
2013-08-02 12:33:00,72.3,62.4,29.84,WSW,253,2.0,4.0,71,0.00,,,0.00,Wunderground v.1.15,2013-08-02 16:33:00,
2013-08-02 12:38:00,71.7,61.4,29.84,WSW,238,1.0,4.0,70,0.00,,,0.00,Wunderground v.1.15,2013-08-02 16:38:00,
2013-08-02 12:44:00,71.4,62.7,29.85,West,273,1.0,2.0,74,0.00,,,0.00,Wunderground v.1.15,2013-08-02 16:44:00,
2013-08-02 12:49:00,71.0,63.1,29.85,WNW,299,1.0,2.0,76,0.00,,,0.00,Wunderground v.1.15,2013-08-02 16:49:00,
2013-08-02 12:54:00,70.6,63.8,29.86,NW,311,1.0,2.0,79,0.00,,,0.00,Wunderground v.1.15,2013-08-02 16:54:00,
2013-08-02 12:59:00,70.2,63.7,29.85,NW,323,1.0,2.0,80,0.00,,,0.00,Wunderground v.1.15,2013-08-02 16:59:00,
2013-08-02 13:04:00,69.9,64.2,29.86,NNW,336,1.0,4.0,82,0.00,,,0.00,Wunderground v.1.15,2013-08-02 17:04:00,
2013-08-02 13:10:00,69.3,63.6,29.86,NNW,336,1.0,2.0,82,0.00,,,0.00,Wunderground v.1.15,2013-08-02 17:10:00,
2013-08-02 13:15:00,68.8,63.4,29.86,NW,320,1.0,3.0,83,0.00,,,0.00,Wunderground v.1.15,2013-08-02 17:15:00,
2013-08-02 13:20:00,68.3,63.6,29.86,NNW,338,2.0,2.0,85,0.00,,,0.00,Wunderground v.1.15,2013-08-02 17:20:00,
2013-08-02 13:25:00,67.6,63.3,29.86,NW,315,3.0,6.0,86,0.00,,,0.00,Wunderground v.1.15,2013-08-02 17:25:00,
2013-08-02 13:30:00,66.6,62.9,29.86,NNW,341,4.0,4.0,88,0.00,,,0.00,Wunderground v.1.15,2013-08-02 17:30:00,
2013-08-02 13:35:00,65.9,61.9,29.86,NW,325,4.0,8.0,87,0.00,,,0.00,Wunderground v.1.15,2013-08-02 17:35:00,
2013-08-02 13:40:00,65.5,60.9,29.86,North,5,5.0,5.0,85,0.00,,,0.00,Wunderground v.1.15,2013-08-02 17:40:00,
2013-08-02 13:45:00,65.3,61.0,29.86,West,281,3.0,5.0,86,0.00,,,0.00,Wunderground v.1.15,2013-08-02 17:45:00,
2013-08-02 13:50:00,65.4,61.1,29.86,NE,55,2.0,3.0,86,0.00,,,0.00,Wunderground v.1.15,2013-08-02 17:50:00,
2013-08-02 13:55:00,65.9,60.6,29.86,NE,55,2.0,3.0,83,0.00,,,0.00,Wunderground v.1.15,2013-08-02 17:55:00,
2013-08-02 14:00:00,66.1,61.1,29.86,NE,55,1.0,1.0,84,0.00,,,0.00,Wunderground v.1.15,2013-08-02 18:00:00,
2013-08-02 14:06:00,66.4,60.7,29.86,West,267,0.0,2.0,82,0.00,,,0.00,Wunderground v.1.15,2013-08-02 18:06:00,
2013-08-02 14:11:00,66.8,61.5,29.86,West,264,1.0,4.0,83,0.00,,,0.00,Wunderground v.1.15,2013-08-02 18:11:00,
2013-08-02 14:17:00,66.8,62.1,29.86,WSW,257,2.0,4.0,85,0.00,,,0.01,Wunderground v.1.15,2013-08-02 18:17:00,
2013-08-02 14:22:00,66.8,62.1,29.86,WNW,302,2.0,2.0,85,0.00,,,0.01,Wunderground v.1.15,2013-08-02 18:22:00,
2013-08-02 14:27:00,67.2,62.5,29.86,NW,323,2.0,3.0,85,0.00,,,0.01,Wunderground v.1.15,2013-08-02 18:27:00,
2013-08-02 14:33:00,67.3,62.3,29.85,NNE,30,2.0,2.0,84,0.00,,,0.01,Wunderground v.1.15,2013-08-02 18:33:00,
2013-08-02 14:38:00,67.8,63.1,29.85,North,11,2.0,4.0,85,0.00,,,0.01,Wunderground v.1.15,2013-08-02 18:38:00,
2013-08-02 14:43:00,67.6,61.6,29.85,NNE,23,2.0,2.0,81,0.00,,,0.01,Wunderground v.1.15,2013-08-02 18:43:00,
2013-08-02 14:48:00,67.7,62.0,29.85,South,180,1.0,2.0,82,0.00,,,0.01,Wunderground v.1.15,2013-08-02 18:48:00,
2013-08-02 14:53:00,68.1,63.1,29.85,WNW,283,1.0,2.0,84,0.00,,,0.01,Wunderground v.1.15,2013-08-02 18:53:00,
2013-08-02 14:59:00,68.1,62.4,29.85,SSW,211,1.0,3.0,82,0.00,,,0.01,Wunderground v.1.15,2013-08-02 18:59:00,
2013-08-02 15:04:00,68.4,62.3,29.85,SSW,205,1.0,2.0,81,0.00,,,0.01,Wunderground v.1.15,2013-08-02 19:04:00,
2013-08-02 15:09:00,69.1,64.1,29.84,SSW,192,1.0,3.0,84,0.00,,,0.01,Wunderground v.1.15,2013-08-02 19:09:00,
2013-08-02 15:14:00,69.9,64.8,29.84,South,171,2.0,4.0,84,0.00,,,0.01,Wunderground v.1.15,2013-08-02 19:14:00,
2013-08-02 15:19:00,70.8,64.0,29.84,SSE,150,3.0,4.0,79,0.00,,,0.01,Wunderground v.1.15,2013-08-02 19:19:00,
2013-08-02 15:25:00,71.4,64.2,29.84,SW,219,3.0,4.0,78,0.00,,,0.01,Wunderground v.1.15,2013-08-02 19:25:00,
2013-08-02 15:30:00,72.4,66.2,29.84,SSE,154,3.0,6.0,81,0.00,,,0.01,Wunderground v.1.15,2013-08-02 19:30:00,
2013-08-02 15:35:00,71.8,63.8,29.84,South,169,3.0,6.0,76,0.00,,,0.01,Wunderground v.1.15,2013-08-02 19:35:00,
2013-08-02 15:40:00,71.9,63.9,29.83,SSE,163,3.0,3.0,76,0.00,,,0.01,Wunderground v.1.15,2013-08-02 19:40:00,
2013-08-02 15:45:00,72.7,63.9,29.83,SSW,205,2.0,3.0,74,0.00,,,0.01,Wunderground v.1.15,2013-08-02 19:45:00,
2013-08-02 15:51:00,73.5,64.3,29.83,West,273,2.0,3.0,73,0.00,,,0.01,Wunderground v.1.15,2013-08-02 19:51:00,
2013-08-02 15:56:00,74.2,63.8,29.83,SW,234,2.0,3.0,70,0.00,,,0.01,Wunderground v.1.15,2013-08-02 19:56:00,
2013-08-02 16:01:00,74.7,63.9,29.83,SSW,209,2.0,3.0,69,0.00,,,0.01,Wunderground v.1.15,2013-08-02 20:01:00,
2013-08-02 16:06:00,74.8,65.2,29.82,SSW,192,2.0,6.0,72,0.00,,,0.01,Wunderground v.1.15,2013-08-02 20:06:00,
2013-08-02 16:11:00,74.8,63.9,29.82,SSW,202,3.0,7.0,69,0.00,,,0.01,Wunderground v.1.15,2013-08-02 20:11:00,
2013-08-02 16:17:00,74.5,63.7,29.82,WSW,244,3.0,7.0,69,0.00,,,0.01,Wunderground v.1.15,2013-08-02 20:17:00,
2013-08-02 16:22:00,74.4,63.6,29.82,West,272,3.0,3.0,69,0.00,,,0.01,Wunderground v.1.15,2013-08-02 20:22:00,
2013-08-02 16:27:00,75.1,64.2,29.82,NNW,346,2.0,3.0,69,0.00,,,0.01,Wunderground v.1.15,2013-08-02 20:27:00,
2013-08-02 16:32:00,74.8,62.2,29.81,NW,310,2.0,3.0,65,0.00,,,0.01,Wunderground v.1.15,2013-08-02 20:32:00,
2013-08-02 16:37:00,74.8,63.1,29.81,West,261,2.0,4.0,67,0.00,,,0.01,Wunderground v.1.15,2013-08-02 20:37:00,
2013-08-02 16:42:00,74.5,62.8,29.81,SW,229,2.0,4.0,67,0.00,,,0.01,Wunderground v.1.15,2013-08-02 20:42:00,
2013-08-02 16:48:00,75.9,65.0,29.81,NNW,341,2.0,4.0,69,0.00,,,0.01,Wunderground v.1.15,2013-08-02 20:48:00,
2013-08-02 16:53:00,75.6,65.1,29.81,NNW,344,2.0,2.0,70,0.00,,,0.01,Wunderground v.1.15,2013-08-02 20:53:00,
2013-08-02 16:58:00,75.6,64.3,29.81,West,269,2.0,3.0,68,0.00,,,0.01,Wunderground v.1.15,2013-08-02 20:58:00,
2013-08-02 17:03:00,74.8,65.6,29.81,NW,323,2.0,5.0,73,0.00,,,0.01,Wunderground v.1.15,2013-08-02 21:03:00,
2013-08-02 17:08:00,74.0,65.2,29.81,NNW,333,2.0,5.0,74,0.00,,,0.01,Wunderground v.1.15,2013-08-02 21:08:00,
2013-08-02 17:14:00,73.9,65.1,29.81,North,5,2.0,5.0,74,0.00,,,0.01,Wunderground v.1.15,2013-08-02 21:14:00,
2013-08-02 17:19:00,74.4,65.2,29.82,North,5,3.0,5.0,73,0.00,,,0.01,Wunderground v.1.15,2013-08-02 21:19:00,
2013-08-02 17:24:00,74.5,64.5,29.82,West,265,3.0,3.0,71,0.00,,,0.01,Wunderground v.1.15,2013-08-02 21:24:00,
2013-08-02 17:29:00,75.5,65.4,29.82,WNW,294,2.0,4.0,71,0.00,,,0.01,Wunderground v.1.15,2013-08-02 21:29:00,
2013-08-02 17:34:00,75.8,64.9,29.82,NW,308,2.0,2.0,69,0.00,,,0.01,Wunderground v.1.15,2013-08-02 21:34:00,
2013-08-02 17:39:00,75.1,64.2,29.82,NNW,344,2.0,2.0,69,0.00,,,0.01,Wunderground v.1.15,2013-08-02 21:39:00,
2013-08-02 17:44:00,74.2,64.2,29.82,North,11,2.0,4.0,71,0.00,,,0.01,Wunderground v.1.15,2013-08-02 21:44:00,
2013-08-02 17:49:00,73.6,63.6,29.82,North,355,1.0,4.0,71,0.00,,,0.01,Wunderground v.1.15,2013-08-02 21:49:00,
2013-08-02 17:54:00,73.5,64.3,29.82,NNE,13,2.0,5.0,73,0.00,,,0.01,Wunderground v.1.15,2013-08-02 21:54:00,
2013-08-02 17:59:00,73.2,64.8,29.82,North,350,2.0,5.0,75,0.00,,,0.01,Wunderground v.1.15,2013-08-02 21:59:00,
2013-08-02 18:04:00,72.7,64.7,29.82,NNW,346,4.0,11.0,76,0.00,,,0.01,Wunderground v.1.15,2013-08-02 22:04:00,
2013-08-02 18:09:00,72.6,64.6,29.83,NW,324,5.0,11.0,76,0.00,,,0.01,Wunderground v.1.15,2013-08-02 22:09:00,
2013-08-02 18:15:00,72.2,63.8,29.82,North,355,3.0,6.0,75,0.00,,,0.01,Wunderground v.1.15,2013-08-02 22:15:00,
2013-08-02 18:20:00,71.9,63.5,29.83,North,5,3.0,3.0,75,0.00,,,0.01,Wunderground v.1.15,2013-08-02 22:20:00,
2013-08-02 18:25:00,71.8,62.7,29.83,NW,319,3.0,3.0,73,0.00,,,0.01,Wunderground v.1.15,2013-08-02 22:25:00,
2013-08-02 18:30:00,71.5,62.0,29.82,NNE,13,2.0,3.0,72,0.00,,,0.01,Wunderground v.1.15,2013-08-02 22:30:00,
2013-08-02 18:36:00,71.7,63.0,29.83,North,5,2.0,5.0,74,0.00,,,0.01,Wunderground v.1.15,2013-08-02 22:36:00,
2013-08-02 18:41:00,71.7,63.0,29.83,North,11,3.0,3.0,74,0.00,,,0.01,Wunderground v.1.15,2013-08-02 22:41:00,
2013-08-02 18:46:00,71.5,62.8,29.83,NNE,23,3.0,5.0,74,0.00,,,0.01,Wunderground v.1.15,2013-08-02 22:46:00,
2013-08-02 18:51:00,71.3,62.2,29.83,NNE,16,2.0,3.0,73,0.00,,,0.01,Wunderground v.1.15,2013-08-02 22:51:00,
2013-08-02 18:56:00,71.1,62.8,29.83,NNE,13,2.0,5.0,75,0.00,,,0.01,Wunderground v.1.15,2013-08-02 22:56:00,
2013-08-02 19:01:00,70.8,62.5,29.83,North,9,3.0,4.0,75,0.00,,,0.01,Wunderground v.1.15,2013-08-02 23:01:00,
2013-08-02 19:07:00,70.4,62.8,29.83,NNE,25,3.0,5.0,77,0.00,,,0.01,Wunderground v.1.15,2013-08-02 23:07:00,
2013-08-02 19:12:00,70.1,62.2,29.82,NNE,27,3.0,3.0,76,0.00,,,0.01,Wunderground v.1.15,2013-08-02 23:12:00,
2013-08-02 19:17:00,69.9,61.6,29.82,North,9,3.0,4.0,75,0.00,,,0.01,Wunderground v.1.15,2013-08-02 23:17:00,
2013-08-02 19:22:00,69.7,62.2,29.82,North,9,3.0,3.0,77,0.00,,,0.01,Wunderground v.1.15,2013-08-02 23:22:00,
2013-08-02 19:28:00,69.4,62.2,29.82,NNE,15,2.0,3.0,78,0.00,,,0.01,Wunderground v.1.15,2013-08-02 23:28:00,
2013-08-02 19:33:00,69.3,62.1,29.82,NNE,15,2.0,2.0,78,0.00,,,0.01,Wunderground v.1.15,2013-08-02 23:33:00,
2013-08-02 19:38:00,69.1,61.6,29.82,NNE,15,1.0,2.0,77,0.00,,,0.01,Wunderground v.1.15,2013-08-02 23:38:00,
2013-08-02 19:43:00,68.8,63.1,29.83,ENE,63,1.0,2.0,82,0.00,,,0.01,Wunderground v.1.15,2013-08-02 23:43:00,
2013-08-02 19:48:00,68.4,63.0,29.83,ENE,63,1.0,2.0,83,0.00,,,0.01,Wunderground v.1.15,2013-08-02 23:48:00,
2013-08-02 19:54:00,68.0,63.3,29.83,ENE,63,1.0,2.0,85,0.00,,,0.01,Wunderground v.1.15,2013-08-02 23:54:00,
2013-08-02 19:59:00,67.6,63.3,29.83,SE,133,1.0,2.0,86,0.00,,,0.01,Wunderground v.1.15,2013-08-02 23:59:00,
2013-08-02 20:04:00,67.2,62.5,29.83,SE,133,1.0,2.0,85,0.00,,,0.01,Wunderground v.1.15,2013-08-03 00:04:00,
2013-08-02 20:09:00,66.8,62.5,29.83,SE,133,1.0,2.0,86,0.00,,,0.01,Wunderground v.1.15,2013-08-03 00:09:00,
2013-08-02 20:14:00,66.4,62.4,29.83,SE,133,0.0,2.0,87,0.00,,,0.01,Wunderground v.1.15,2013-08-03 00:14:00,
2013-08-02 20:19:00,65.9,61.9,29.83,SE,133,0.0,2.0,87,0.00,,,0.01,Wunderground v.1.15,2013-08-03 00:19:00,
2013-08-02 20:24:00,65.2,61.9,29.83,SW,218,0.0,2.0,89,0.00,,,0.01,Wunderground v.1.15,2013-08-03 00:24:00,
2013-08-02 20:29:00,65.0,61.7,29.83,SW,218,0.0,2.0,89,0.00,,,0.01,Wunderground v.1.15,2013-08-03 00:29:00,
2013-08-02 20:34:00,64.7,61.7,29.83,SSE,163,0.0,2.0,90,0.00,,,0.01,Wunderground v.1.15,2013-08-03 00:34:00,
2013-08-02 20:39:00,64.7,61.4,29.83,SE,142,1.0,3.0,89,0.00,,,0.01,Wunderground v.1.15,2013-08-03 00:39:00,
2013-08-02 20:44:00,64.5,61.2,29.83,SE,142,1.0,2.0,89,0.00,,,0.01,Wunderground v.1.15,2013-08-03 00:44:00,
2013-08-02 20:49:00,64.3,61.3,29.83,SE,142,0.0,2.0,90,0.00,,,0.01,Wunderground v.1.15,2013-08-03 00:49:00,
2013-08-02 20:55:00,63.9,60.9,29.83,SE,142,0.0,2.0,90,0.00,,,0.01,Wunderground v.1.15,2013-08-03 00:55:00,
2013-08-02 20:56:00,63.9,60.9,29.83,SE,142,0.0,2.0,90,0.00,,,0.01,Wunderground v.1.15,2013-08-03 00:56:00,
2013-08-02 21:01:00,63.7,61.0,29.83,SE,142,0.0,2.0,91,0.00,,,0.01,Wunderground v.1.15,2013-08-03 01:01:00,
2013-08-02 21:07:00,63.7,61.3,29.83,SSW,201,0.0,2.0,92,0.00,,,0.01,Wunderground v.1.15,2013-08-03 01:07:00,
2013-08-02 21:13:00,63.6,61.2,29.83,SSW,201,1.0,2.0,92,0.00,,,0.01,Wunderground v.1.15,2013-08-03 01:13:00,
2013-08-02 21:18:00,63.5,61.1,29.83,SSW,201,1.0,2.0,92,0.00,,,0.01,Wunderground v.1.15,2013-08-03 01:18:00,
2013-08-02 21:23:00,63.4,61.0,29.83,SSW,201,0.0,2.0,92,0.00,,,0.01,Wunderground v.1.15,2013-08-03 01:23:00,
2013-08-02 21:29:00,63.3,61.2,29.83,SSW,201,0.0,2.0,93,0.00,,,0.01,Wunderground v.1.15,2013-08-03 01:29:00,
2013-08-02 21:34:00,63.2,61.1,29.83,SSW,201,0.0,2.0,93,0.00,,,0.01,Wunderground v.1.15,2013-08-03 01:34:00,
2013-08-02 21:39:00,63.4,61.6,29.83,SSW,211,0.0,2.0,94,0.00,,,0.01,Wunderground v.1.15,2013-08-03 01:39:00,
2013-08-02 21:45:00,63.2,61.1,29.83,SSW,211,0.0,2.0,93,0.00,,,0.01,Wunderground v.1.15,2013-08-03 01:45:00,
2013-08-02 21:50:00,63.2,61.4,29.83,SSW,211,0.0,2.0,94,0.00,,,0.01,Wunderground v.1.15,2013-08-03 01:50:00,
2013-08-02 21:55:00,63.3,61.5,29.83,SSW,211,0.0,2.0,94,0.00,,,0.01,Wunderground v.1.15,2013-08-03 01:55:00,
2013-08-02 22:00:00,63.4,61.6,29.84,SSW,211,0.0,2.0,94,0.00,,,0.01,Wunderground v.1.15,2013-08-03 02:00:00,
2013-08-02 22:05:00,63.6,62.1,29.84,SSW,211,1.0,3.0,95,0.00,,,0.02,Wunderground v.1.15,2013-08-03 02:05:00,
2013-08-02 22:11:00,63.8,62.0,29.84,NNW,336,1.0,2.0,94,0.33,,,0.06,Wunderground v.1.15,2013-08-03 02:11:00,
2013-08-02 22:16:00,63.8,61.7,29.84,SSW,200,1.0,6.0,93,0.15,,,0.07,Wunderground v.1.15,2013-08-03 02:16:00,
2013-08-02 22:21:00,63.9,61.8,29.84,South,184,2.0,2.0,93,0.08,,,0.07,Wunderground v.1.15,2013-08-03 02:21:00,
2013-08-02 22:26:00,64.1,62.0,29.84,SSW,207,2.0,3.0,93,0.05,,,0.07,Wunderground v.1.15,2013-08-03 02:26:00,
2013-08-02 22:31:00,64.1,62.0,29.84,SSW,194,1.0,2.0,93,0.00,,,0.07,Wunderground v.1.15,2013-08-03 02:31:00,
2013-08-02 22:36:00,64.1,62.3,29.84,South,176,1.0,3.0,94,0.00,,,0.07,Wunderground v.1.15,2013-08-03 02:36:00,
2013-08-02 22:42:00,64.0,62.2,29.83,SSE,163,1.0,2.0,94,0.00,,,0.07,Wunderground v.1.15,2013-08-03 02:42:00,
2013-08-02 22:47:00,63.8,62.0,29.83,SSE,163,1.0,2.0,94,0.00,,,0.07,Wunderground v.1.15,2013-08-03 02:47:00,
2013-08-02 22:52:00,63.7,61.9,29.83,SSE,163,1.0,2.0,94,0.00,,,0.07,Wunderground v.1.15,2013-08-03 02:52:00,
2013-08-02 22:57:00,63.6,61.8,29.83,SSE,163,0.0,2.0,94,0.00,,,0.07,Wunderground v.1.15,2013-08-03 02:57:00,
2013-08-02 23:03:00,63.6,61.8,29.83,SSE,163,0.0,2.0,94,0.00,,,0.07,Wunderground v.1.15,2013-08-03 03:03:00,
2013-08-02 23:08:00,63.5,61.7,29.82,SSE,163,1.0,2.0,94,0.00,,,0.07,Wunderground v.1.15,2013-08-03 03:08:00,
2013-08-02 23:13:00,63.3,61.5,29.82,SSE,163,1.0,2.0,94,0.00,,,0.07,Wunderground v.1.15,2013-08-03 03:13:00,
2013-08-02 23:18:00,63.1,61.3,29.82,South,177,1.0,3.0,94,0.00,,,0.07,Wunderground v.1.15,2013-08-03 03:18:00,
2013-08-02 23:23:00,63.0,61.2,29.82,ESE,123,2.0,3.0,94,0.00,,,0.07,Wunderground v.1.15,2013-08-03 03:23:00,
2013-08-02 23:29:00,62.8,61.0,29.81,WSW,251,2.0,3.0,94,0.00,,,0.07,Wunderground v.1.15,2013-08-03 03:29:00,
2013-08-02 23:34:00,62.9,61.4,29.81,SSE,148,1.0,3.0,95,0.00,,,0.07,Wunderground v.1.15,2013-08-03 03:34:00,
2013-08-02 23:40:00,63.0,61.5,29.81,SE,128,2.0,2.0,95,0.00,,,0.07,Wunderground v.1.15,2013-08-03 03:40:00,
2013-08-02 23:46:00,63.0,61.5,29.81,West,262,2.0,2.0,95,0.00,,,0.07,Wunderground v.1.15,2013-08-03 03:46:00,
2013-08-02 23:51:00,63.1,61.6,29.81,South,178,1.0,2.0,95,0.00,,,0.07,Wunderground v.1.15,2013-08-03 03:51:00,
2013-08-02 23:56:00,63.2,61.7,29.81,West,272,1.0,3.0,95,0.00,,,0.07,Wunderground v.1.15,2013-08-03 03:56:00,